User: anonymous   Login
Location: Sawmill Trailhead
(33.5800°N, 116.4497°W)
Time: 04:34:53
(UTC-07:00)
Language:

Uosat F - Orbit

View from above orbital plane
View from above orbital plane
View from above satellite
View from above satellite

Ground track
Ground track

The orbit data is extracted from the following two-line orbital elements,

1 21575U 91050B   18109.05434092 -.00000003  00000-0  13465-4 0  9998
2 21575  98.7352 137.4230 0008429 107.5478 252.6631 14.40840594405329
Epoch (UTC): 19 April 2018 01:18:15
Eccentricity: 0.0008429
inclination: 98.7352°
perigee height: 750 km
apogee height: 762 km
right ascension of ascending node: 137.4230°
argument of perigee: 107.5478°
revolutions per day: 14.40840594
mean anomaly at epoch: 252.6631°
orbit number at epoch: 40532

The dashed part of the orbit path shows where the satellite is in the earth's shadow,  

DLR